Volver al catálogo

STARLINK-31629

ActivoComunicacionesVLEO
NORAD 59255·PAYLOAD·🇺🇸 United States

Lanzado Mar 19, 2024 desde Vandenberg Space Force Base

Loading…

Próximos Pases (próximas 24 horas)

TLE

ActualizadoSource: CelesTrak SupGP

Época: Sep 15, 2026, 02:38 UTC

1 59255C 24050B   26258.11020833  .00030065  00000+0  88825-3 0  2583
2 59255  53.1611  20.6848 0001095  86.8224  11.4298 15.34376527    17

Sigue STARLINK-31629 en tiempo real con AllMySat

Download on the App Store